Location: Bullenkuhlen
(53.7689°N, 9.7495°E)
Time: 06:33:46
(UTC+00:00)

Cosmos 2360 Rocket - Pass Details

Date: 09 April 2020
Orbit: 834 x 845 km, 71.0° (Epoch: 29 May)

Event Time Altitude Azimuth Distance (km) Brightness Sun altitude
Rises 21:28:07 0° 326° (NNW) 3,395 6.8 -23.7°
Reaches altitude 10° 21:30:49 10° 337° (NNW) 2,459 5.7 -23.9°
Maximum altitude 21:35:52 32° 40° (NE) 1,396 3.5 -24.3°
Enters shadow 21:38:04 25° 80° (E) 1,653 3.5 -24.4°
